| time (UTC) | temp C | wind direction | speed KPH | gust KPH | rain 1hr cm | rain 24hr cm | rain mn cm | humidity % | barometer mb |
| 20260506071253 | -3 | 274 | 0.0 | 0.0 | 0.00 | 0.00 | 0.00 | 99 | 1021.3 |
| 20260506070744 | -3 | 274 | 0.0 | 0.0 | 0.00 | 0.00 | 0.00 | 99 | 1020.9 |
| 20260506070241 | -3 | 274 | 0.0 | 0.0 | 0.00 | 0.00 | 0.00 | 99 | 1021.3 |
| 20260506062218 | -3 | 274 | 0.0 | 0.0 | 0.00 | 0.00 | 0.00 | 99 | 1020.4 |
| 20260506061714 | -3 | 274 | 0.0 | 0.0 | 0.00 | 0.00 | 0.00 | 99 | 1020.4 |
| 20260506061212 | -3 | 274 | 0.0 | 0.0 | 0.00 | 0.00 | 0.00 | 99 | 1020.2 |
| 20260506060711 | -3 | 274 | 0.0 | 0.0 | 0.00 | 0.00 | 0.00 | 99 | 1020.3 |
| 20260506060207 | -3 | 274 | 0.0 | 0.0 | 0.00 | 0.00 | 0.00 | 99 | 1020.4 |
| 20260506051139 | -3 | 275 | 0.0 | 0.0 | 0.00 | 0.05 | 0.05 | 99 | 1020.6 |
| 20260506050638 | -3 | 275 | 0.0 | 0.0 | 0.00 | 0.05 | 0.05 | 99 | 1019.9 |
| 20260506050134 | -3 | 275 | 0.0 | 0.0 | 0.00 | 0.05 | 0.05 | 99 | 1020.2 |
| 20260506045126 | -3 | 275 | 0.0 | 0.0 | 0.00 | 0.05 | 0.05 | 99 | 1020.3 |
| 20260506044625 | -3 | 275 | 0.0 | 0.0 | 0.00 | 0.05 | 0.05 | 99 | 1020.3 |
| 20260506044122 | -3 | 275 | 0.0 | 0.0 | 0.00 | 0.05 | 0.05 | 99 | 1020.3 |
| 20260506043619 | -3 | 275 | 0.0 | 0.0 | 0.00 | 0.05 | 0.05 | 99 | 1020.4 |
| 20260506043117 | -3 | 275 | 0.0 | 0.0 | 0.00 | 0.05 | 0.05 | 99 | 1020.3 |
| 20260506042616 | -3 | 275 | 0.0 | 0.0 | 0.00 | 0.05 | 0.05 | 99 | 1020.2 |
| 20260506042113 | -3 | 275 | 0.0 | 0.0 | 0.00 | 0.05 | 0.05 | 99 | 1020.2 |
| 20260506041612 | -3 | 275 | 0.0 | 0.0 | 0.00 | 0.05 | 0.05 | 99 | 1020.2 |
| 20260506041108 | -3 | 275 | 0.0 | 0.0 | 0.00 | 0.05 | 0.05 | 99 | 1020.2 |
| 20260506040606 | -3 | 276 | 0.0 | 0.0 | 0.00 | 0.05 | 0.05 | 99 | 1020.6 |
| 20260506035559 | -3 | 276 | 0.0 | 0.0 | 0.00 | 0.05 | 0.05 | 99 | 1020.2 |
| 20260506035056 | -3 | 276 | 0.0 | 0.0 | 0.00 | 0.05 | 0.05 | 99 | 1019.9 |
| 20260506034553 | -3 | 276 | 0.0 | 0.0 | 0.00 | 0.05 | 0.05 | 99 | 1019.9 |
| 20260506034050 | -3 | 276 | 0.0 | 0.0 | 0.00 | 0.05 | 0.05 | 99 | 1020.1 |
| 20260506033547 | -3 | 276 | 0.0 | 0.0 | 0.00 | 0.05 | 0.05 | 99 | 1020.1 |
| 20260506033044 | -3 | 276 | 0.0 | 0.0 | 0.00 | 0.05 | 0.05 | 99 | 1019.8 |
| 20260506032542 | -3 | 276 | 0.0 | 0.0 | 0.00 | 0.05 | 0.05 | 99 | 1019.8 |
| 20260506032038 | -3 | 276 | 0.0 | 0.0 | 0.00 | 0.05 | 0.05 | 99 | 1019.8 |
| 20260506031536 | -3 | 276 | 0.0 | 0.0 | 0.00 | 0.05 | 0.05 | 99 | 1019.9 |
| 20260506031033 | -3 | 276 | 0.0 | 0.0 | 0.00 | 0.05 | 0.05 | 99 | 1019.7 |
| 20260506030531 | -3 | 276 | 0.0 | 0.0 | 0.00 | 0.05 | 0.05 | 99 | 1019.4 |
| 20260506030028 | -3 | 276 | 0.0 | 0.0 | 0.00 | 0.05 | 0.05 | 99 | 1019.3 |
| 20260506025525 | -3 | 276 | 0.0 | 0.0 | 0.00 | 0.05 | 0.05 | 99 | 1019.6 |
| 20260506025021 | -3 | 276 | 0.0 | 0.0 | 0.00 | 0.05 | 0.05 | 99 | 1019.2 |
| 20260506024518 | -3 | 277 | 0.0 | 0.0 | 0.00 | 0.05 | 0.05 | 99 | 1019.2 |
| 20260506024014 | -3 | 276 | 0.0 | 0.0 | 0.00 | 0.05 | 0.05 | 99 | 1019.3 |
| 20260506023510 | -3 | 277 | 0.0 | 0.0 | 0.00 | 0.05 | 0.05 | 99 | 1019.0 |
| 20260506023008 | -3 | 277 | 0.0 | 0.0 | 0.00 | 0.05 | 0.05 | 99 | 1019.2 |
| 20260506022505 | -3 | 277 | 0.0 | 0.0 | 0.00 | 0.05 | 0.05 | 99 | 1019.0 |
| 20260506022003 | -3 | 277 | 0.0 | 0.0 | 0.00 | 0.05 | 0.05 | 99 | 1018.9 |
| 20260506021500 | -3 | 277 | 0.0 | 0.0 | 0.00 | 0.05 | 0.05 | 99 | 1018.7 |
| 20260506020957 | -3 | 277 | 0.0 | 0.0 | 0.00 | 0.05 | 0.05 | 99 | 1019.0 |
| 20260506020455 | -3 | 277 | 0.0 | 0.0 | 0.00 | 0.05 | 0.05 | 99 | 1018.9 |
| 20260506015951 | -3 | 278 | 0.0 | 0.0 | 0.00 | 0.05 | 0.05 | 99 | 1018.9 |
| 20260506015449 | -3 | 247 | 0.0 | 0.0 | 0.00 | 0.05 | 0.05 | 99 | 1018.7 |
| 20260506014946 | -2 | 234 | 0.0 | 0.0 | 0.00 | 0.05 | 0.05 | 99 | 1018.4 |
| 20260506014443 | -2 | 229 | 0.0 | 0.0 | 0.00 | 0.05 | 0.05 | 99 | 1018.2 |
| 20260506013939 | -2 | 232 | 0.0 | 0.0 | 0.00 | 0.05 | 0.05 | 99 | 1018.4 |
| 20260506013438 | -3 | 232 | 0.0 | 0.0 | 0.00 | 0.05 | 0.05 | 99 | 1018.8 |
| 20260506012933 | -2 | 0 | 0.0 | 0.0 | 0.00 | 0.05 | 0.05 | 99 | 1018.3 |
| 20260506012430 | -2 | 334 | 0.0 | 0.0 | 0.00 | 0.05 | 0.05 | 99 | 1018.3 |
| 20260506011927 | -2 | 270 | 1.6 | 1.6 | 0.00 | 0.05 | 0.05 | 99 | 1018.2 |
| 20260506011424 | -2 | 284 | 0.0 | 0.0 | 0.00 | 0.05 | 0.05 | 99 | 1018.3 |
| 20260506010921 | -2 | 228 | 0.0 | 0.0 | 0.00 | 0.05 | 0.05 | 99 | 1018.2 |
| 20260506010420 | -2 | 231 | 0.0 | 0.0 | 0.00 | 0.05 | 0.05 | 99 | 1018.3 |
| 20260506005915 | -2 | 233 | 0.0 | 0.0 | 0.00 | 0.05 | 0.05 | 99 | 1018.4 |
| 20260506005414 | -2 | 239 | 0.0 | 1.6 | 0.00 | 0.05 | 0.05 | 99 | 1018.3 |
| 20260506004909 | -2 | 346 | 3.2 | 3.2 | 0.00 | 0.05 | 0.05 | 99 | 1018.3 |
| 20260506004407 | -2 | 284 | 3.2 | 3.2 | 0.00 | 0.05 | 0.05 | 99 | 1017.9 |
| 20260506003902 | -2 | 21 | 3.2 | 3.2 | 0.00 | 0.05 | 0.05 | 99 | 1017.9 |
| 20260506003359 | -2 | 8 | 0.0 | 1.6 | 0.00 | 0.05 | 0.05 | 99 | 1018.0 |
| 20260506002856 | -2 | 279 | 0.0 | 0.0 | 0.00 | 0.05 | 0.05 | 99 | 1017.9 |
| 20260506002352 | -2 | 322 | 1.6 | 3.2 | 0.00 | 0.05 | 0.05 | 99 | 1018.2 |
| 20260506001848 | -1 | 233 | 0.0 | 0.0 | 0.00 | 0.05 | 0.05 | 99 | 1018.0 |
| 20260506001344 | -1 | 233 | 1.6 | 1.6 | 0.00 | 0.05 | 0.05 | 99 | 1017.9 |
| 20260506000842 | -1 | 333 | 3.2 | 3.2 | 0.00 | 0.05 | 0.05 | 99 | 1017.7 |
| 20260506000340 | -1 | 278 | 3.2 | 4.8 | 0.00 | 0.05 | 0.05 | 99 | 1017.7 |
| 20260505235836 | -1 | 218 | 0.0 | 0.0 | 0.00 | 0.05 | 0.05 | 99 | 1017.5 |
| 20260505235334 | -1 | 326 | 0.0 | 1.6 | 0.00 | 0.05 | 0.05 | 99 | 1017.7 |
| 20260505234830 | -1 | 6 | 1.6 | 3.2 | 0.00 | 0.05 | 0.05 | 99 | 1017.7 |
| 20260505234328 | -1 | 268 | 1.6 | 1.6 | 0.00 | 0.05 | 0.05 | 99 | 1017.5 |
| 20260505233825 | -1 | 232 | 1.6 | 1.6 | 0.00 | 0.05 | 0.05 | 99 | 1017.4 |
| 20260505233323 | -1 | 227 | 1.6 | 1.6 | 0.00 | 0.05 | 0.05 | 99 | 1017.4 |
| 20260505232820 | -1 | 312 | 1.6 | 1.6 | 0.00 | 0.05 | 0.05 | 99 | 1017.4 |
| 20260505232317 | -1 | 302 | 4.8 | 8.0 | 0.00 | 0.05 | 0.05 | 99 | 1017.4 |
| 20260505231814 | -1 | 47 | 3.2 | 3.2 | 0.00 | 0.05 | 0.05 | 99 | 1017.5 |
| 20260505231312 | -1 | 265 | 0.0 | 1.6 | 0.00 | 0.05 | 0.05 | 99 | 1017.8 |
| 20260505230809 | -1 | 252 | 4.8 | 4.8 | 0.00 | 0.05 | 0.05 | 99 | 1017.7 |
| 20260505230306 | -1 | 304 | 4.8 | 4.8 | 0.00 | 0.05 | 0.05 | 99 | 1017.3 |
| 20260505225803 | 0 | 321 | 1.6 | 1.6 | 0.00 | 0.05 | 0.05 | 99 | 1017.0 |
| 20260505225300 | 0 | 288 | 6.4 | 8.0 | 0.00 | 0.05 | 0.05 | 99 | 1016.6 |
| 20260505224755 | 0 | 296 | 4.8 | 4.8 | 0.00 | 0.05 | 0.05 | 99 | 1017.0 |
| 20260505224254 | 0 | 352 | 4.8 | 4.8 | 0.00 | 0.05 | 0.05 | 99 | 1016.9 |
| 20260505223751 | 0 | 258 | 4.8 | 4.8 | 0.00 | 0.05 | 0.05 | 99 | 1017.4 |
| 20260505223247 | 0 | 220 | 0.0 | 1.6 | 0.00 | 0.05 | 0.05 | 99 | 1017.4 |
| 20260505222743 | 0 | 228 | 0.0 | 0.0 | 0.00 | 0.05 | 0.05 | 99 | 1017.0 |
| 20260505222239 | 0 | 235 | 1.6 | 1.6 | 0.00 | 0.05 | 0.05 | 99 | 1017.0 |
| 20260505221736 | 0 | 236 | 4.8 | 4.8 | 0.00 | 0.05 | 0.05 | 99 | 1016.9 |
| 20260505221233 | 0 | 226 | 0.0 | 0.0 | 0.00 | 0.05 | 0.05 | 99 | 1016.8 |
| 20260505220730 | 0 | 349 | 3.2 | 3.2 | 0.00 | 0.05 | 0.05 | 99 | 1016.5 |
| 20260505220228 | 0 | 313 | 1.6 | 3.2 | 0.00 | 0.05 | 0.05 | 99 | 1016.9 |
| 20260505215726 | 0 | 227 | 0.0 | 0.0 | 0.00 | 0.05 | 0.05 | 99 | 1016.6 |
| 20260505215223 | 0 | 74 | 4.8 | 4.8 | 0.18 | 0.05 | 0.05 | 99 | 1016.6 |
| 20260505214721 | 0 | 281 | 0.0 | 0.0 | 0.18 | 0.05 | 0.05 | 99 | 1016.8 |
| 20260505214218 | 0 | 231 | 1.6 | 1.6 | 0.00 | 0.03 | 0.03 | 99 | 1016.8 |
| 20260505213715 | 0 | 223 | 0.0 | 0.0 | 0.00 | 0.03 | 0.03 | 99 | 1016.9 |
| 20260505213212 | 0 | 266 | 1.6 | 1.6 | 0.00 | 0.03 | 0.03 | 99 | 1016.8 |
| 20260505212708 | 0 | 342 | 4.8 | 4.8 | 0.00 | 0.03 | 0.03 | 99 | 1016.9 |
| 20260505212206 | 0 | 68 | 3.2 | 3.2 | 0.00 | 0.03 | 0.03 | 99 | 1016.8 |
| 20260505211702 | 0 | 227 | 0.0 | 1.6 | 0.00 | 0.03 | 0.03 | 99 | 1016.6 |
| 20260505211200 | 0 | 60 | 3.2 | 4.8 | 0.00 | 0.03 | 0.03 | 99 | 1017.0 |
| 20260505210656 | 0 | 223 | 1.6 | 1.6 | 0.00 | 0.03 | 0.03 | 99 | 1017.0 |
| 20260505210153 | 0 | 28 | 3.2 | 3.2 | 0.00 | 0.03 | 0.03 | 99 | 1017.4 |
| 20260505205651 | 0 | 187 | 3.2 | 3.2 | 0.00 | 0.03 | 0.03 | 99 | 1017.3 |
| 20260505205149 | 0 | 4 | 8.0 | 11.3 | 0.00 | 0.03 | 0.03 | 99 | 1017.5 |
| 20260505204645 | 1 | 46 | 4.8 | 4.8 | 0.00 | 0.03 | 0.03 | 99 | 1017.3 |
| 20260505204143 | 0 | 66 | 4.8 | 4.8 | 0.00 | 0.03 | 0.03 | 99 | 1017.2 |
| 20260505203640 | 0 | 77 | 0.0 | 1.6 | 0.00 | 0.03 | 0.03 | 99 | 1017.5 |
| 20260505203137 | 0 | 6 | 4.8 | 9.7 | 0.00 | 0.03 | 0.03 | 99 | 1017.8 |
| 20260505202632 | 0 | 66 | 4.8 | 4.8 | 0.00 | 0.03 | 0.03 | 98 | 1017.9 |
| 20260505202128 | 1 | 21 | 9.7 | 12.9 | 0.00 | 0.03 | 0.03 | 98 | 1017.7 |
| 20260505201625 | 1 | 255 | 1.6 | 1.6 | 0.00 | 0.03 | 0.03 | 97 | 1017.5 |
| 20260505201117 | 1 | 218 | 0.0 | 0.0 | 0.00 | 0.03 | 0.03 | 98 | 1017.3 |
| 20260505200615 | 1 | 205 | 3.2 | 4.8 | 0.00 | 0.03 | 0.03 | 97 | 1017.5 |
| 20260505200112 | 1 | 166 | 1.6 | 3.2 | 0.00 | 0.03 | 0.03 | 98 | 1017.8 |
| 20260505195608 | 1 | 278 | 1.6 | 1.6 | 0.00 | 0.03 | 0.03 | 98 | 1017.7 |
| 20260505195106 | 1 | 296 | 4.8 | 8.0 | 0.00 | 0.03 | 0.03 | 97 | 1017.9 |
| 20260505194602 | 1 | 92 | 3.2 | 4.8 | 0.00 | 0.03 | 0.03 | 98 | 1017.9 |
| 20260505194058 | 0 | 203 | 1.6 | 1.6 | 0.00 | 0.03 | 0.03 | 98 | 1017.8 |
| 20260505193555 | 1 | 30 | 1.6 | 3.2 | 0.00 | 0.03 | 0.03 | 97 | 1017.9 |
| 20260505193052 | 1 | 72 | 8.0 | 11.3 | 0.00 | 0.03 | 0.03 | 98 | 1017.8 |
| 20260505192551 | 0 | 131 | 1.6 | 3.2 | 0.00 | 0.03 | 0.03 | 98 | 1018.0 |
| 20260505192048 | 0 | 238 | 4.8 | 4.8 | 0.00 | 0.03 | 0.03 | 99 | 1017.8 |
| 20260505191546 | 0 | 52 | 0.0 | 1.6 | 0.00 | 0.03 | 0.03 | 99 | 1017.7 |
| 20260505191044 | 0 | 165 | 0.0 | 1.6 | 0.00 | 0.03 | 0.03 | 99 | 1018.2 |
| 20260505190538 | 0 | 262 | 0.0 | 1.6 | 0.00 | 0.03 | 0.03 | 99 | 1018.0 |
| 20260505190034 | 0 | 92 | 3.2 | 3.2 | 0.00 | 0.03 | 0.03 | 99 | 1018.2 |
| 20260505185531 | 1 | 225 | 0.0 | 1.6 | 0.00 | 0.03 | 0.03 | 99 | 1018.3 |
| 20260505185028 | 0 | 229 | 4.8 | 4.8 | 0.00 | 0.03 | 0.03 | 99 | 1018.0 |
| 20260505184524 | 0 | 278 | 3.2 | 3.2 | 0.00 | 0.03 | 0.03 | 99 | 1018.3 |
| 20260505184022 | 0 | 265 | 3.2 | 3.2 | 0.00 | 0.03 | 0.03 | 99 | 1018.2 |
| 20260505183518 | 0 | 222 | 1.6 | 3.2 | 0.00 | 0.03 | 0.03 | 99 | 1018.2 |
| 20260505183015 | 0 | 258 | 4.8 | 4.8 | 0.00 | 0.03 | 0.03 | 99 | 1018.3 |
| 20260505182512 | 0 | 203 | 4.8 | 4.8 | 0.00 | 0.03 | 0.03 | 99 | 1018.4 |
| 20260505182008 | 0 | 239 | 3.2 | 3.2 | 0.00 | 0.03 | 0.03 | 99 | 1018.5 |
| 20260505181505 | 0 | 303 | 1.6 | 1.6 | 0.00 | 0.03 | 0.03 | 99 | 1018.5 |
| 20260505181002 | 0 | 60 | 3.2 | 4.8 | 0.00 | 0.03 | 0.03 | 99 | 1018.7 |
| 20260505180458 | 0 | 196 | 8.0 | 9.7 | 0.00 | 0.03 | 0.03 | 99 | 1018.7 |
| 20260505175955 | 0 | 292 | 0.0 | 1.6 | 0.00 | 0.03 | 0.03 | 99 | 1018.8 |
| 20260505175445 | 0 | 167 | 3.2 | 4.8 | 0.00 | 0.03 | 0.03 | 99 | 1018.5 |
| 20260505174941 | 0 | 323 | 0.0 | 1.6 | 0.00 | 0.03 | 0.03 | 99 | 1019.0 |
| 20260505174434 | 0 | 334 | 1.6 | 3.2 | 0.00 | 0.03 | 0.03 | 99 | 1018.8 |
| 20260505173929 | 0 | 88 | 0.0 | 1.6 | 0.00 | 0.03 | 0.03 | 99 | 1018.9 |
| 20260505173426 | 0 | 28 | 3.2 | 4.8 | 0.00 | 0.03 | 0.03 | 99 | 1018.8 |
| 20260505172923 | 0 | 219 | 0.0 | 0.0 | 0.00 | 0.03 | 0.03 | 99 | 1018.9 |
| 20260505172422 | 0 | 185 | 0.0 | 0.0 | 0.00 | 0.03 | 0.03 | 99 | 1018.7 |
| 20260505171920 | 0 | 247 | 3.2 | 3.2 | 0.00 | 0.03 | 0.03 | 99 | 1018.9 |
| 20260505171418 | 0 | 221 | 0.0 | 0.0 | 0.00 | 0.03 | 0.03 | 99 | 1019.0 |
| 20260505170914 | 0 | 170 | 4.8 | 4.8 | 0.00 | 0.03 | 0.03 | 99 | 1019.0 |
| 20260505170411 | 0 | 32 | 1.6 | 3.2 | 0.00 | 0.03 | 0.03 | 99 | 1018.9 |
| 20260505165906 | 0 | 241 | 1.6 | 1.6 | 0.00 | 0.03 | 0.03 | 99 | 1019.0 |
| 20260505165403 | 0 | 89 | 4.8 | 4.8 | 0.00 | 0.03 | 0.03 | 99 | 1018.9 |
| 20260505164858 | 0 | 170 | 1.6 | 3.2 | 0.00 | 0.03 | 0.03 | 99 | 1018.7 |
| 20260505164355 | 0 | 231 | 0.0 | 0.0 | 0.00 | 0.03 | 0.03 | 99 | 1018.9 |
| 20260505163853 | 0 | 212 | 0.0 | 1.6 | 0.00 | 0.03 | 0.03 | 99 | 1019.3 |
| 20260505163352 | 0 | 238 | 0.0 | 0.0 | 0.00 | 0.03 | 0.03 | 99 | 1019.2 |
| 20260505162850 | 0 | 33 | 1.6 | 3.2 | 0.00 | 0.03 | 0.03 | 99 | 1019.2 |
| 20260505162345 | 0 | 158 | 3.2 | 3.2 | 0.00 | 0.03 | 0.03 | 99 | 1019.0 |
| 20260505161843 | 0 | 353 | 3.2 | 4.8 | 0.00 | 0.03 | 0.03 | 99 | 1019.2 |
| 20260505161340 | 0 | 186 | 0.0 | 1.6 | 0.00 | 0.03 | 0.03 | 99 | 1019.7 |
| 20260505160837 | 0 | 218 | 0.0 | 1.6 | 0.00 | 0.03 | 0.03 | 99 | 1019.4 |
| 20260505160335 | 0 | 223 | 1.6 | 1.6 | 0.00 | 0.03 | 0.03 | 99 | 1019.4 |
| 20260505153314 | 0 | 265 | 1.6 | 1.6 | 0.00 | 0.03 | 0.03 | 99 | 1019.3 |
| 20260505152811 | 0 | 180 | 0.0 | 0.0 | 0.00 | 0.03 | 0.03 | 99 | 1019.6 |
| 20260505152308 | 0 | 25 | 3.2 | 4.8 | 0.00 | 0.03 | 0.03 | 99 | 1019.4 |
| 20260505151802 | 0 | 149 | 3.2 | 3.2 | 0.00 | 0.03 | 0.03 | 99 | 1019.4 |
| 20260505151259 | 0 | 165 | 3.2 | 3.2 | 0.00 | 0.03 | 0.03 | 99 | 1019.6 |
| 20260505150756 | 0 | 351 | 4.8 | 4.8 | 0.00 | 0.03 | 0.03 | 99 | 1019.4 |
| 20260505150253 | 0 | 15 | 8.0 | 9.7 | 0.00 | 0.03 | 0.03 | 99 | 1019.7 |
| 20260505140217 | 0 | 341 | 4.8 | 4.8 | 0.00 | 0.00 | 0.00 | 99 | 1019.8 |
| 20260505130142 | 0 | 320 | 4.8 | 4.8 | 0.00 | 0.00 | 0.00 | 99 | 1019.3 |
| 20260505124631 | 0 | 341 | 1.6 | 1.6 | 0.00 | 0.00 | 0.00 | 99 | 1019.0 |
| 20260505124128 | 0 | 17 | 4.8 | 4.8 | 0.00 | 0.00 | 0.00 | 99 | 1019.0 |
| 20260505123623 | 0 | 291 | 3.2 | 3.2 | 0.00 | 0.00 | 0.00 | 99 | 1019.2 |
| 20260505123120 | 0 | 252 | 6.4 | 9.7 | 0.00 | 0.00 | 0.00 | 99 | 1019.2 |
| 20260505122617 | 0 | 284 | 3.2 | 3.2 | 0.00 | 0.00 | 0.00 | 99 | 1018.8 |
| 20260505122114 | 0 | 272 | 3.2 | 3.2 | 0.00 | 0.00 | 0.00 | 99 | 1018.9 |
| 20260505121605 | 0 | 253 | 0.0 | 0.0 | 0.00 | 0.00 | 0.00 | 99 | 1018.9 |
| 20260505121102 | 0 | 13 | 3.2 | 4.8 | 0.00 | 0.00 | 0.00 | 99 | 1018.9 |
| 20260505120558 | 0 | 225 | 0.0 | 0.0 | 0.00 | 0.00 | 0.00 | 99 | 1019.0 |
| 20260505120054 | 0 | 40 | 4.8 | 8.0 | 0.00 | 0.00 | 0.00 | 99 | 1019.0 |
| 20260505115548 | 0 | 214 | 1.6 | 3.2 | 0.00 | 0.00 | 0.00 | 99 | 1019.2 |
| 20260505115046 | 0 | 283 | 1.6 | 3.2 | 0.00 | 0.00 | 0.00 | 99 | 1018.8 |
| 20260505114543 | 0 | 132 | 0.0 | 1.6 | 0.00 | 0.00 | 0.00 | 99 | 1019.2 |
| 20260505114039 | 0 | 299 | 6.4 | 8.0 | 0.00 | 0.00 | 0.00 | 99 | 1018.8 |
| 20260505113535 | 0 | 294 | 3.2 | 4.8 | 0.00 | 0.00 | 0.00 | 99 | 1018.8 |
| 20260505113032 | 0 | 271 | 4.8 | 8.0 | 0.00 | 0.00 | 0.00 | 99 | 1018.4 |
| 20260505112528 | 0 | 320 | 3.2 | 8.0 | 0.00 | 0.00 | 0.00 | 99 | 1018.5 |
| 20260505112026 | 1 | 12 | 1.6 | 3.2 | 0.00 | 0.00 | 0.00 | 99 | 1018.4 |
| 20260505111520 | 1 | 41 | 9.7 | 11.3 | 0.00 | 0.00 | 0.00 | 99 | 1018.3 |
| 20260505111017 | 1 | 241 | 0.0 | 0.0 | 0.00 | 0.00 | 0.00 | 99 | 1018.0 |
| 20260505110513 | 1 | 329 | 1.6 | 1.6 | 0.00 | 0.00 | 0.00 | 99 | 1017.9 |
| 20260505101945 | 3 | 260 | 0.0 | 1.6 | 0.00 | 0.00 | 0.00 | 99 | 1017.9 |
| 20260505101438 | 3 | 7 | 3.2 | 4.8 | 0.00 | 0.00 | 0.00 | 99 | 1017.9 |
| 20260505100934 | 3 | 26 | 3.2 | 4.8 | 0.00 | 0.00 | 0.00 | 99 | 1017.7 |
| 20260505100431 | 3 | 284 | 0.0 | 0.0 | 0.00 | 0.00 | 0.00 | 99 | 1017.4 |
| 20260505095927 | 3 | 228 | 0.0 | 0.0 | 0.00 | 0.00 | 0.00 | 99 | 1017.7 |
| 20260505095424 | 3 | 226 | 0.0 | 0.0 | 0.00 | 0.00 | 0.00 | 99 | 1017.7 |
| 20260505094920 | 3 | 232 | 0.0 | 0.0 | 0.00 | 0.00 | 0.00 | 99 | 1017.7 |
| 20260505094418 | 3 | 229 | 0.0 | 0.0 | 0.00 | 0.00 | 0.00 | 99 | 1017.4 |
| 20260505093913 | 3 | 229 | 0.0 | 0.0 | 0.00 | 0.00 | 0.00 | 99 | 1017.4 |
| 20260505093411 | 3 | 242 | 0.0 | 0.0 | 0.00 | 0.00 | 0.00 | 99 | 1017.4 |
| 20260505092908 | 3 | 217 | 0.0 | 0.0 | 0.00 | 0.00 | 0.00 | 99 | 1018.2 |
| 20260505092406 | 3 | 194 | 0.0 | 0.0 | 0.00 | 0.00 | 0.00 | 99 | 1017.9 |
| 20260505091903 | 3 | 224 | 0.0 | 0.0 | 0.00 | 0.00 | 0.00 | 99 | 1017.8 |
| 20260505091400 | 3 | 222 | 0.0 | 0.0 | 0.00 | 0.00 | 0.00 | 99 | 1017.8 |
| 20260505090858 | 3 | 224 | 0.0 | 0.0 | 0.00 | 0.00 | 0.00 | 99 | 1018.0 |
| 20260505090356 | 3 | 221 | 0.0 | 0.0 | 0.00 | 0.00 | 0.00 | 99 | 1017.5 |
| 20260505085853 | 3 | 224 | 0.0 | 0.0 | 0.00 | 0.00 | 0.00 | 99 | 1017.8 |
| 20260505085351 | 3 | 222 | 0.0 | 0.0 | 0.00 | 0.00 | 0.00 | 99 | 1017.8 |
| 20260505084849 | 3 | 218 | 0.0 | 0.0 | 0.00 | 0.00 | 0.00 | 99 | 1017.9 |
| 20260505084347 | 3 | 214 | 0.0 | 0.0 | 0.00 | 0.00 | 0.00 | 99 | 1017.9 |
| 20260505083845 | 3 | 222 | 0.0 | 0.0 | 0.00 | 0.00 | 0.00 | 99 | 1017.8 |
| 20260505083342 | 3 | 222 | 0.0 | 0.0 | 0.00 | 0.00 | 0.00 | 99 | 1018.2 |
| 20260505082838 | 3 | 216 | 0.0 | 0.0 | 0.00 | 0.00 | 0.00 | 99 | 1018.0 |
| 20260505082334 | 3 | 223 | 0.0 | 0.0 | 0.00 | 0.00 | 0.00 | 99 | 1018.0 |
| 20260505081831 | 3 | 218 | 0.0 | 0.0 | 0.00 | 0.00 | 0.00 | 99 | 1018.2 |
| 20260505081327 | 3 | 222 | 0.0 | 0.0 | 0.00 | 0.00 | 0.00 | 99 | 1018.3 |
| 20260505080824 | 3 | 222 | 0.0 | 0.0 | 0.00 | 0.00 | 0.00 | 99 | 1018.2 |
| 20260505080320 | 3 | 222 | 0.0 | 0.0 | 0.00 | 0.00 | 0.00 | 99 | 1018.3 |
| 20260505075816 | 3 | 225 | 0.0 | 0.0 | 0.00 | 0.00 | 0.00 | 99 | 1018.3 |
| 20260505075313 | 3 | 222 | 0.0 | 0.0 | 0.00 | 0.00 | 0.00 | 99 | 1018.3 |
| 20260505074810 | 3 | 219 | 0.0 | 0.0 | 0.00 | 0.00 | 0.00 | 99 | 1018.0 |
| 20260505074307 | 3 | 231 | 0.0 | 0.0 | 0.00 | 0.00 | 0.00 | 99 | 1018.2 |
| 20260505073805 | 3 | 225 | 0.0 | 0.0 | 0.00 | 0.00 | 0.00 | 99 | 1018.3 |
| 20260505073303 | 3 | 224 | 0.0 | 0.0 | 0.00 | 0.00 | 0.00 | 99 | 1018.4 |
| 20260505072759 | 3 | 227 | 0.0 | 0.0 | 0.00 | 0.00 | 0.00 | 99 | 1018.3 |
| 20260505072255 | 3 | 226 | 0.0 | 0.0 | 0.00 | 0.00 | 0.00 | 99 | 1018.8 |
| 20260505071751 | 3 | 224 | 0.0 | 0.0 | 0.00 | 0.00 | 0.00 | 99 | 1018.5 |